DW8300 Weather Reports


time (UTC)temp
F
wind
direction
speed
knots
gust
knots
rain 1hr
in
rain 24hr
in
rain mn
in
humidity
%
barometer
mb
20260506222403 66 284 0.0 0.9 0.00 0.18 0.18 86 1008.2
20260506221901 66 279 0.0 0.0 0.00 0.18 0.18 86 1008.1
20260506221356 66 271 0.0 0.9 0.00 0.18 0.18 85 1008.2
20260506220905 66 238 0.0 0.0 0.00 0.18 0.18 85 1008.2
20260506220345 66 237 0.0 0.0 0.00 0.18 0.18 86 1008.0
20260506215845 66 234 0.0 0.0 0.00 0.18 0.18 86 1007.8
20260506215346 66 234 0.0 0.9 0.00 0.18 0.18 86 1007.8
20260506214828 66 234 0.0 0.0 0.00 0.18 0.18 86 1007.9
20260506214311 66 232 0.0 0.0 0.00 0.18 0.18 86 1008.0
20260506213805 66 233 0.0 0.0 0.00 0.18 0.18 86 1007.9
20260506213256 66 233 0.0 0.0 0.00 0.18 0.18 87 1007.9
20260506211446 65 232 0.0 0.0 0.00 0.18 0.18 88 1007.7
20260506210335 65 232 0.0 0.0 0.00 0.18 0.18 88 1007.5
20260506205844 65 232 0.0 0.0 0.00 0.18 0.18 88 1007.3
20260506205333 65 233 0.0 0.0 0.00 0.18 0.18 88 1007.3
20260506204829 65 233 0.0 0.0 0.00 0.18 0.18 89 1007.4
20260506203700 64 233 0.0 0.0 0.00 0.18 0.18 89 1007.2
20260506203150 64 233 0.0 0.0 0.00 0.18 0.18 89 1007.3
20260506202648 64 233 0.0 0.0 0.00 0.18 0.18 88 1007.3
20260506202145 64 232 0.0 0.0 0.00 0.18 0.18 88 1007.3
20260506201629 64 232 0.0 0.0 0.00 0.18 0.18 88 1007.3
20260506201125 64 232 0.0 0.0 0.00 0.18 0.18 88 1007.3
20260506200623 65 232 0.0 0.0 0.00 0.18 0.18 88 1007.4
20260506200106 64 232 0.0 0.0 0.00 0.18 0.18 87 1007.3
20260506195604 65 232 0.0 0.0 0.00 0.18 0.18 87 1007.4
20260506195059 65 233 0.0 0.0 0.00 0.18 0.18 87 1007.4
20260506194607 65 233 0.0 0.0 0.00 0.18 0.18 87 1007.4
20260506194107 65 233 0.0 0.0 0.00 0.18 0.18 87 1007.3
20260506193549 65 233 0.0 0.0 0.00 0.18 0.18 86 1007.4
20260506192424 65 232 0.0 0.0 0.00 0.18 0.18 86 1007.6
20260506191913 65 233 0.0 0.0 0.00 0.18 0.18 86 1007.6
20260506190752 65 235 0.0 0.0 0.00 0.18 0.18 85 1007.5
20260506190239 65 235 0.0 0.9 0.00 0.18 0.18 85 1007.6
20260506185733 65 225 0.0 0.0 0.00 0.18 0.18 85 1007.5
20260506185231 65 234 0.0 0.0 0.00 0.18 0.18 85 1007.6
20260506184719 65 233 0.0 0.9 0.00 0.18 0.18 85 1007.6
20260506184204 65 236 0.0 3.5 0.00 0.18 0.18 84 1007.6
20260506183704 65 249 0.0 3.5 0.00 0.18 0.18 85 1007.6
20260506182536 64 245 0.0 0.0 0.00 0.18 0.18 86 1007.6
20260506180733 64 238 0.0 0.9 0.00 0.18 0.18 87 1007.7
20260506180219 64 157 0.0 3.5 0.00 0.18 0.18 87 1007.8
20260506175057 64 219 0.0 7.0 0.00 0.18 0.18 85 1007.8
20260506174552 64 223 0.0 7.0 0.00 0.18 0.18 84 1007.9
20260506174058 64 178 0.0 0.0 0.00 0.18 0.18 84 1007.8
20260506172942 64 207 0.0 3.5 0.00 0.18 0.18 85 1007.7
20260506172423 64 244 0.0 3.5 0.00 0.18 0.18 84 1007.7
20260506171914 64 225 0.0 3.5 0.00 0.18 0.18 85 1007.7
20260506171359 64 205 0.0 3.5 0.00 0.18 0.18 85 1007.7
20260506170845 64 138 0.0 0.9 0.00 0.18 0.18 86 1007.7
20260506170354 64 181 0.0 8.7 0.00 0.18 0.18 87 1007.7
20260506165905 63 229 0.0 8.7 0.00 0.18 0.18 88 1007.8
20260506165401 63 228 0.0 8.7 0.00 0.18 0.18 88 1007.8
20260506164904 63 217 0.0 7.8 0.00 0.18 0.18 88 1007.8
20260506164345 63 232 0.0 5.2 0.00 0.18 0.18 89 1007.8
20260506163829 63 221 0.0 3.5 0.00 0.18 0.18 89 1007.8
20260506163323 62 173 0.0 0.0 0.00 0.18 0.18 90 1007.9
20260506162818 62 193 0.0 0.0 0.00 0.18 0.18 91 1007.9
20260506162326 61 142 0.0 0.9 0.00 0.18 0.18 91 1008.0
20260506161820 61 244 0.0 0.0 0.00 0.18 0.18 91 1008.0
20260506161304 61 194 0.0 3.5 0.00 0.18 0.18 91 1007.9
20260506160111 60 207 0.0 0.9 0.00 0.18 0.18 92 1007.8
20260506154332 60 144 0.0 0.9 0.00 0.18 0.18 92 1008.2
20260506153826 60 221 0.0 0.0 0.00 0.18 0.18 92 1008.1
20260506153317 60 200 0.0 0.9 0.00 0.18 0.18 92 1007.9
20260506152143 60 210 0.0 0.9 0.00 0.18 0.18 92 1007.9
20260506151629 60 246 0.0 0.0 0.00 0.18 0.18 93 1007.9
20260506151113 60 248 0.0 0.9 0.00 0.18 0.18 93 1007.7
20260506145956 60 164 0.0 0.0 0.00 0.16 0.17 93 1008.2
20260506145442 60 171 0.0 0.0 0.00 0.16 0.17 93 1008.1
20260506144935 60 168 0.0 0.0 0.00 0.16 0.17 93 1007.9
20260506144444 60 219 0.0 0.0 0.00 0.16 0.17 93 1008.0
20260506143930 60 244 0.0 0.0 0.00 0.16 0.17 93 1008.1
20260506142210 59 227 0.0 0.9 0.00 0.16 0.16 93 1008.5
20260506141658 60 181 0.0 0.9 0.00 0.16 0.16 92 1008.4
20260506141140 60 232 0.0 0.0 0.00 0.16 0.16 92 1008.6
20260506140636 60 240 0.0 6.1 0.00 0.16 0.16 92 1008.6
20260506140123 60 185 0.0 0.9 0.00 0.16 0.16 92 1008.4
20260506135603 60 188 0.0 0.0 0.00 0.16 0.16 92 1008.4
20260506135056 60 185 0.0 0.0 0.00 0.16 0.16 92 1008.3
20260506133929 59 193 0.0 0.0 0.05 0.16 0.16 92 1008.3
20260506133411 59 199 0.0 0.0 0.05 0.16 0.16 92 1008.3
20260506132905 59 154 0.0 0.0 0.05 0.14 0.15 92 1008.3
20260506131751 59 242 0.0 0.0 0.00 0.13 0.15 92 1008.6
20260506131239 59 164 0.0 0.9 0.00 0.13 0.13 92 1008.6
20260506130738 59 205 0.0 0.9 0.00 0.13 0.13 92 1008.7
20260506130244 59 170 0.0 0.0 0.05 0.13 0.13 92 1008.7
20260506125725 59 147 0.0 0.9 0.08 0.13 0.13 91 1008.6
20260506125222 59 129 0.0 0.9 0.08 0.13 0.13 91 1008.6
20260506124729 59 127 0.0 0.0 0.04 0.13 0.13 91 1008.6
20260506123615 59 214 0.0 0.0 0.06 0.12 0.12 91 1008.7
20260506123103 59 212 0.0 0.0 0.06 0.12 0.12 91 1008.5
20260506122545 59 212 0.0 0.0 0.08 0.10 0.10 90 1008.5
20260506122055 59 213 0.0 0.0 0.08 0.10 0.10 90 1008.5
20260506121538 59 211 0.0 0.0 0.10 0.09 0.10 90 1008.6
20260506121041 59 211 0.0 0.0 0.10 0.09 0.10 89 1008.9
20260506120540 60 207 0.0 0.0 0.10 0.08 0.09 89 1008.9
20260506115431 60 237 0.0 0.0 0.09 0.06 0.06 87 1009.0
20260506114941 60 200 0.0 0.0 0.10 0.06 0.06 87 1009.1
20260506114426 60 205 0.0 0.9 0.08 0.04 0.05 86 1009.1
20260506113928 60 155 0.0 0.0 0.08 0.04 0.04 85 1009.0
20260506113436 61 217 0.0 0.0 0.08 0.04 0.04 84 1009.0
20260506112927 61 217 0.0 0.0 0.12 0.03 0.03 83 1009.2
20260506112429 61 214 0.0 0.0 0.06 0.02 0.02 82 1009.1
20260506111911 61 221 0.0 0.9 0.00 0.01 0.01 80 1009.1
20260506111401 62 219 0.0 0.0 0.00 0.01 0.01 80 1008.9
20260506110900 62 250 0.0 0.0 0.00 0.00 0.00 79 1008.6
20260506110410 62 250 0.0 0.0 0.00 0.00 0.00 79 1008.6
20260506105905 62 264 0.0 0.0 0.00 0.00 0.00 78 1008.5
20260506104729 62 249 0.0 0.0 0.00 0.00 0.00 77 1008.4
20260506104228 62 250 0.0 0.0 0.00 0.00 0.00 77 1008.4
20260506103720 62 193 0.0 0.0 0.00 0.00 0.00 76 1008.3
20260506103219 62 240 0.0 0.0 0.00 0.00 0.00 76 1008.3
20260506102704 63 197 0.0 0.0 0.00 0.00 0.00 75 1008.2
20260506102202 63 178 0.0 0.0 0.00 0.00 0.00 75 1008.1
20260506101648 63 213 0.0 0.9 0.00 0.00 0.00 74 1008.0
20260506101146 63 219 0.0 0.9 0.00 0.00 0.00 73 1008.1
20260506100630 63 222 0.0 0.9 0.00 0.00 0.00 73 1008.0
20260506100121 64 225 0.0 0.9 0.00 0.00 0.00 72 1008.0
20260506095624 64 194 0.0 0.9 0.00 0.00 0.00 70 1007.9
20260506094506 65 230 0.0 0.0 0.00 0.00 0.00 68 1007.9
20260506093953 65 173 0.0 1.7 0.00 0.00 0.00 67 1007.9
20260506093449 65 217 0.0 0.9 0.00 0.00 0.00 66 1007.9
20260506092328 65 238 0.0 2.6 0.00 0.00 0.00 65 1007.9
20260506091834 65 232 0.0 2.6 0.00 0.00 0.00 65 1008.0
20260506091331 65 174 0.0 0.0 0.00 0.00 0.00 65 1007.9
20260506090218 65 265 0.0 3.5 0.00 0.00 0.00 64 1007.9
20260506085042 65 207 0.0 0.0 0.00 0.00 0.00 64 1008.0
20260506084548 65 194 0.0 0.9 0.00 0.00 0.00 64 1008.1
20260506083413 65 237 0.0 0.9 0.00 0.00 0.00 63 1008.1
20260506082904 66 225 0.0 8.7 0.00 0.00 0.00 63 1008.2
20260506082411 66 214 0.0 8.7 0.00 0.00 0.00 63 1008.3
20260506081903 66 185 0.0 7.8 0.00 0.00 0.00 63 1008.2
20260506081405 66 161 0.0 0.9 0.00 0.00 0.00 63 1008.2
20260506080913 66 233 0.0 2.6 0.00 0.00 0.00 63 1008.2
20260506080357 66 230 0.0 0.9 0.00 0.00 0.00 62 1008.2
20260506073301 66 221 0.0 5.2 0.00 0.00 0.00 61 1008.2
20260506072746 66 194 0.0 2.6 0.00 0.00 0.00 60 1008.1
20260506072249 66 204 0.0 0.9 0.00 0.00 0.00 60 1008.3
20260506071730 66 225 0.0 1.7 0.00 0.00 0.00 60 1008.2
20260506070620 67 238 0.0 0.9 0.00 0.00 0.00 59 1008.3
20260506070114 67 211 0.0 0.0 0.00 0.00 0.00 59 1008.2
20260506062045 67 220 0.0 0.0 0.00 0.00 0.00 58 1008.8
20260506061553 67 218 0.0 0.9 0.00 0.00 0.00 57 1008.9
20260506061047 67 236 0.0 0.9 0.00 0.00 0.00 57 1008.9
20260506060535 67 191 0.0 0.0 0.00 0.00 0.00 57 1009.0
20260506051006 67 200 0.0 0.0 0.00 0.00 0.00 54 1009.4
20260506050511 67 186 0.0 0.0 0.00 0.00 0.00 53 1009.5
20260506044812 67 186 0.0 0.0 0.00 0.00 0.00 52 1009.6
20260506044259 67 208 0.0 1.7 0.00 0.00 0.00 51 1009.6
20260506043139 67 188 0.0 0.0 0.00 0.00 0.00 50 1009.6
20260506042042 67 174 0.0 0.0 0.00 0.00 0.00 50 1009.5
20260506041524 67 174 0.0 0.0 0.00 0.00 0.00 50 1009.5
20260506041005 67 174 0.0 0.0 0.00 0.00 0.00 50 1009.6
20260506040454 67 175 0.0 0.0 0.00 0.00 0.00 49 1009.5
20260506035939 68 175 0.0 0.0 0.00 0.00 0.00 49 1009.5
20260506035427 68 175 0.0 0.0 0.00 0.00 0.00 48 1009.5
20260506034909 68 175 0.0 0.0 0.00 0.00 0.00 48 1009.5
20260506034417 68 175 0.0 0.0 0.00 0.00 0.00 47 1009.4
20260506033859 68 175 0.0 0.0 0.00 0.00 0.00 47 1009.5
20260506033345 68 175 0.0 0.0 0.00 0.00 0.00 46 1009.5
20260506032828 68 172 0.0 0.0 0.00 0.00 0.00 47 1009.4
20260506032316 68 170 0.0 0.0 0.00 0.00 0.00 47 1009.4
20260506031822 68 224 0.0 0.0 0.00 0.00 0.00 47 1009.3
20260506031317 69 128 0.0 0.0 0.00 0.00 0.00 47 1009.3
20260506030152 69 121 0.0 0.0 0.00 0.00 0.00 46 1009.3
20260506025030 69 248 0.0 0.0 0.00 0.00 0.00 45 1009.5
20260506024530 69 250 0.0 0.0 0.00 0.00 0.00 45 1009.4
20260506024032 69 250 0.0 0.0 0.00 0.00 0.00 44 1009.4
20260506023514 69 250 0.0 0.0 0.00 0.00 0.00 44 1009.4
20260506022959 69 250 0.0 0.9 0.00 0.00 0.00 43 1009.4
20260506022457 70 180 0.0 0.0 0.00 0.00 0.00 43 1009.4
20260506021946 70 178 0.0 0.0 0.00 0.00 0.00 43 1009.4
20260506021443 70 201 0.0 0.0 0.00 0.00 0.00 42 1009.4
20260506020315 70 239 0.0 0.0 0.00 0.00 0.00 41 1009.5
20260506015814 71 239 0.0 0.0 0.00 0.00 0.00 40 1009.5
20260506015311 71 240 0.0 0.0 0.00 0.00 0.00 40 1009.4
20260506014806 71 244 0.0 0.0 0.00 0.00 0.00 40 1009.3
20260506014301 71 243 0.0 0.0 0.00 0.00 0.00 39 1009.3
20260506013759 71 236 0.0 0.0 0.00 0.00 0.00 38 1009.2
20260506013251 71 207 0.0 0.0 0.00 0.00 0.00 38 1009.2
20260506012747 71 204 0.0 0.9 0.00 0.00 0.00 38 1009.1
20260506012253 72 202 0.0 0.9 0.00 0.00 0.00 37 1009.0
20260506011802 72 247 0.0 0.9 0.00 0.00 0.00 36 1009.0
20260506011243 72 248 0.0 0.9 0.00 0.00 0.00 37 1008.9
20260506010739 72 211 0.0 0.0 0.00 0.00 0.00 36 1008.9
20260506010248 73 212 0.0 0.0 0.00 0.00 0.00 36 1008.8
20260506005751 73 213 0.0 0.9 0.00 0.00 0.00 36 1008.8
20260506005251 73 251 0.0 0.0 0.00 0.00 0.00 35 1008.8
20260506004749 73 219 0.0 4.3 0.00 0.00 0.00 35 1008.8
20260506004240 73 175 0.0 4.3 0.00 0.00 0.00 35 1008.7
20260506003731 73 214 0.0 0.0 0.00 0.00 0.00 35 1008.6
20260506003235 73 226 0.0 0.9 0.00 0.00 0.00 35 1008.5
20260506002049 74 222 0.0 7.0 0.00 0.00 0.00 35 1008.4
20260506001531 74 228 0.0 2.6 0.00 0.00 0.00 36 1008.4
20260506001012 74 79 0.0 2.6 0.00 0.00 0.00 35 1008.2
20260506000509 75 207 0.0 2.6 0.00 0.00 0.00 34 1008.3
20260505235957 75 218 0.0 0.9 0.00 0.00 0.00 35 1008.2
20260505234849 75 225 0.0 3.5 0.00 0.00 0.00 35 1008.2
20260505234345 76 216 0.0 3.5 0.00 0.00 0.00 34 1008.2
20260505233850 76 178 0.0 3.5 0.00 0.00 0.00 35 1008.1
20260505233332 76 196 0.0 0.9 0.00 0.00 0.00 35 1008.2
20260505232817 76 197 0.0 0.9 0.00 0.00 0.00 34 1008.1
20260505232322 76 244 0.0 1.7 0.00 0.00 0.00 35 1008.2
20260505231810 77 228 0.0 1.7 0.00 0.00 0.00 34 1008.2
20260505231304 77 211 0.0 0.0 0.00 0.00 0.00 34 1008.1
20260505230749 77 210 0.0 7.0 0.00 0.00 0.00 34 1008.0
20260505230236 77 151 0.0 4.3 0.00 0.00 0.00 33 1008.1
20260505225723 78 173 0.0 7.0 0.00 0.00 0.00 33 1008.0
20260505225229 78 221 0.0 7.0 0.00 0.00 0.00 32 1008.0
20260505224110 78 222 0.0 7.0 0.00 0.00 0.00 33 1008.1